Retour au catalogue

SIMSAT 1

ActifSciencePO
NORAD 26365·PAYLOAD·🇷🇺 Russia

Lancé May 16, 2000 depuis Plesetsk Cosmodrome

Loading…

Prochains Passages (prochaines 24 heures)

TLE

FraisSource: Space-Track

Époque: Sep 14, 2026, 12:32 UTC

1 26365U 00026A   26257.52227108  .00001605  00000-0  56520-4 0  9993
2 26365  86.3381  87.7693 0008759  21.2285 338.9324 15.28414913456030

Suivez SIMSAT 1 en temps réel avec AllMySat

Download on the App Store